Riverside, CA

9:59 AM PST on December 02, 2016 (GMT -0800)
Riverside Municipal

Weather History for KRAL - June, 2014

Change the Weather History Date:

Sunday, June 22, 2014

  Actual Average Record
Temperature  
Mean Temperature 75 °F 74 °F  
Max Temperature 90 °F 86 °F 105 °F (1973)
Min Temperature 60 °F 61 °F 43 °F (1916)
Degree Days  
Heating Degree Days 0 0  
Month to date heating degree days 0 0  
Since 1 June heating degree days 0 0  
Since 1 July heating degree days 803 1444  
Cooling Degree Days 10 9  
Month to date cooling degree days 200 143  
Year to date cooling degree days 578 320  
Since 1 June cooling degree days 200 143  
Growing Degree Days 24 (Base 50)    
Moisture  
Dew Point 56 °F    
Average Humidity 56    
Maximum Humidity 90    
Minimum Humidity 21    
Precipitation  
Precipitation 0.00 in 0.00 in 0.01 in (1972)
Month to date precipitation 0.00 0.08  
Year to date precipitation 1.72 9.17  
Since 1 July precipitation 2.87  
Snow  
Snow 0.00 in - - ()
Month to date snowfall 0.0  
Year to date snowfall 0.0  
Snow Depth 0.00 in    
Sea Level Pressure  
Sea Level Pressure 29.86 in    
Wind  
Wind Speed 5 mph (West)    
Max Wind Speed 17 mph    
Max Gust Speed 25 mph    
Visibility 9 miles    
Events      
T = Trace of Precipitation, MM = Missing Value Source: NWS Daily Summary

Daily Weather History Graph

Daily Weather History Graph

Search for Another Location

Airport or City:

Trip Planner

Search our weather history database for the weather conditions in past years. The results will help you decide how hot, cold, wet, or windy it might be!

Date:

Astronomy

Jun. 22, 2014 Rise Set
Actual Time 5:39 AM PDT 8:04 PM PDT
Civil Twilight 5:10 AM PDT 8:33 PM PDT
Nautical Twilight 4:34 AM PDT 9:09 PM PDT
Astronomical Twilight 3:54 AM PDT 9:48 PM PDT
Moon 2:20 AM PDT (6/22) 3:58 PM PDT (6/22)
Length of Visible Light 15h 23m
Length of Day
14h 25m
Waning Crescent, 20% of the Moon is Illuminated
Jun 22
Waning Crescent
Jun 27
New
Jul 5
First Quarter
Jul 12
Full
Jul 18
Last Quarter

Hourly Weather History & Observations

Time (PDT) Temp. Heat Index Dew Point Humidity Pressure Visibility Wind Dir Wind Speed Gust Speed Precip Events Conditions
12:53 AM 63.0 °F - 57.9 °F 84% 29.86 in 10.0 mi WNW 3.5 mph - N/A   Clear
1:53 AM 62.1 °F - 57.0 °F 84% 29.85 in 10.0 mi West 3.5 mph - N/A   Clear
2:53 AM 62.1 °F - 57.0 °F 84% 29.84 in 10.0 mi Calm Calm - N/A   Clear
3:37 AM 61.0 °F - 57.0 °F 87% 29.89 in 10.0 mi Calm Calm - N/A   Scattered Clouds
3:45 AM 62.1 °F - 57.0 °F 84% 29.89 in 10.0 mi Calm Calm - N/A   Mostly Cloudy
3:53 AM 62.1 °F - 57.0 °F 84% 29.84 in 10.0 mi Calm Calm - N/A   Mostly Cloudy
4:02 AM 62.1 °F - 57.0 °F 84% 29.89 in 9.0 mi Calm Calm - N/A   Scattered Clouds
4:53 AM 61.0 °F - 57.0 °F 87% 29.85 in 8.0 mi Calm Calm - N/A   Clear
5:05 AM 60.1 °F - 57.0 °F 90% 29.90 in 7.0 mi West 3.5 mph - N/A   Scattered Clouds
5:13 AM 60.1 °F - 57.9 °F 93% 29.90 in 7.0 mi West 3.5 mph - N/A   Mostly Cloudy
5:53 AM 61.0 °F - 57.9 °F 90% 29.86 in 5.0 mi Calm Calm - N/A   Overcast
6:53 AM 62.1 °F - 57.9 °F 86% 29.87 in 4.0 mi North 3.5 mph - N/A   Overcast
7:53 AM 62.1 °F - 57.9 °F 86% 29.89 in 4.0 mi West 3.5 mph - N/A   Overcast
8:53 AM 63.0 °F - 57.9 °F 84% 29.90 in 5.0 mi SW 3.5 mph - N/A   Haze
9:19 AM 64.9 °F - 57.9 °F 78% 29.94 in 5.0 mi WSW 5.8 mph - N/A   Haze
9:53 AM 69.1 °F - 57.9 °F 68% 29.90 in 6.0 mi WNW 4.6 mph - N/A   Haze
10:53 AM 75.0 °F - 57.0 °F 53% 29.89 in 8.0 mi Variable 3.5 mph - N/A   Clear
11:53 AM 80.1 °F 80.1 °F 55.0 °F 42% 29.87 in 10.0 mi Variable 4.6 mph - N/A   Clear
12:53 PM 84.0 °F - 51.1 °F 32% 29.85 in 10.0 mi Variable 4.6 mph - N/A   Clear
1:53 PM 89.1 °F - 45.0 °F 22% 29.83 in 10.0 mi Variable 5.8 mph - N/A   Clear
2:53 PM 88.0 °F 86.1 °F 55.0 °F 32% 29.81 in 10.0 mi West 15.0 mph 23.0 mph N/A   Clear
3:53 PM 86.0 °F 84.7 °F 55.9 °F 36% 29.80 in 10.0 mi West 13.8 mph 23.0 mph N/A   Clear
4:53 PM 82.0 °F 81.7 °F 57.0 °F 42% 29.80 in 10.0 mi West 15.0 mph 25.3 mph N/A   Clear
5:53 PM 80.1 °F 80.4 °F 57.0 °F 45% 29.81 in 10.0 mi West 12.7 mph 18.4 mph N/A   Clear
6:17 PM 80.1 °F 80.4 °F 57.0 °F 45% 29.85 in 10.0 mi West 13.8 mph 19.6 mph N/A   Partly Cloudy
6:53 PM 77.0 °F - 57.0 °F 50% 29.81 in 10.0 mi West 9.2 mph - N/A   Clear
7:53 PM 73.0 °F - 57.0 °F 57% 29.83 in 10.0 mi West 10.4 mph - N/A   Clear
8:53 PM 69.1 °F - 57.0 °F 65% 29.85 in 10.0 mi West 6.9 mph - N/A   Clear
9:53 PM 66.9 °F - 57.0 °F 70% 29.87 in 10.0 mi West 3.5 mph - N/A   Clear
10:53 PM 66.0 °F - 57.0 °F 73% 29.88 in 10.0 mi West 5.8 mph - N/A   Clear
11:53 PM 64.0 °F - 55.9 °F 75% 29.87 in 10.0 mi Calm Calm - N/A   Clear